Location: Lussas
(44.6119°N, 4.4726°E)
Time: 04:47:09
(UTC+00:00)

PSLV R/B - Pass Details

Date: 26 November 2020
Orbit: 568 x 598 km, 98.2° (Epoch: 18 January)

Event Time Altitude Azimuth Distance (km) Brightness Sun altitude
Rises 05:29:27 0° 181° (S) 2,813 7.6 -14.6°
Reaches altitude 10° 05:31:41 10° 187° (S) 1,912 6.7 -14.2°
Maximum altitude 05:35:39 44° 260° (W) 812 4.3 -13.5°
Drops below altitude 10° 05:39:38 10° 334° (NNW) 1,911 6.2 -12.9°
Enters shadow 05:39:55 - 335° (NNW) 2,020 6.3 -12.8°
